DLH6AN EDDV-EDDM

Flight info

Callsign DLH6AN
Flight time 0h 55m
Altitude 31000
Route POVE3H POVEL Z94 GALMA T703 LULAR T105 LANDU LAN08
Aircraft A320/M-SDE3FGHIRWY/LB1

Departure

Time 2026-04-30 04:28
Airport Hannover Airport (EDDV)

Arrival

Time 2026-04-30 05:23
Airport Munich Airport (EDDM)
Time Latitude Longitude Altitude Speed Heading
2026-04-30 03:59 52.45846 9.69467 191 ft 0 kts 22°
2026-04-30 04:21 52.45824 9.69453 196 ft 4 kts 22°
2026-04-30 04:21 52.45799 9.69436 201 ft 4 kts 22°
2026-04-30 04:21 52.45779 9.69424 203 ft 4 kts 359°
2026-04-30 04:21 52.45755 9.69438 202 ft 4 kts 319°
2026-04-30 04:22 52.45738 9.69463 201 ft 4 kts 323°
2026-04-30 04:22 52.45732 9.69471 204 ft 0 kts 322°
2026-04-30 04:24 52.45750 9.69443 196 ft 8 kts 306°
2026-04-30 04:24 52.45759 9.69357 199 ft 9 kts 272°
2026-04-30 04:24 52.45761 9.69229 191 ft 11 kts 264°
2026-04-30 04:24 52.45712 9.69152 198 ft 10 kts 191°
2026-04-30 04:25 52.45638 9.69128 197 ft 11 kts 218°
2026-04-30 04:25 52.45626 9.69001 201 ft 14 kts 272°
2026-04-30 04:25 52.45633 9.68801 200 ft 19 kts 274°
2026-04-30 04:25 52.45640 9.68572 191 ft 21 kts 271°
2026-04-30 04:26 52.45645 9.68318 191 ft 23 kts 272°
2026-04-30 04:26 52.45653 9.68043 191 ft 23 kts 272°
2026-04-30 04:26 52.45656 9.67809 202 ft 17 kts 260°
2026-04-30 04:26 52.45586 9.67703 191 ft 13 kts 191°
2026-04-30 04:27 52.45511 9.67727 197 ft 11 kts 137°
2026-04-30 04:27 52.45493 9.67874 186 ft 23 kts 93°
2026-04-30 04:27 52.45473 9.68603 185 ft 101 kts 92°
2026-04-30 04:27 52.45437 9.70076 221 ft 154 kts 91°
2026-04-30 04:28 52.45403 9.71860 926 ft 157 kts 92°
2026-04-30 04:28 52.45380 9.73664 1736 ft 163 kts 92°
2026-04-30 04:28 52.45346 9.75602 2283 ft 178 kts 94°
2026-04-30 04:28 52.45293 9.77725 2789 ft 196 kts 93°
2026-04-30 04:29 52.45257 9.79247 3239 ft 206 kts 92°
2026-04-30 04:29 52.45192 9.81697 3898 ft 225 kts 93°
2026-04-30 04:29 52.45095 9.84372 4583 ft 241 kts 94°
2026-04-30 04:29 52.44989 9.87158 5575 ft 247 kts 93°
2026-04-30 04:30 52.44884 9.90001 6567 ft 251 kts 92°
2026-04-30 04:30 52.44705 9.92850 7478 ft 258 kts 100°
2026-04-30 04:30 52.44075 9.95649 8393 ft 267 kts 115°
2026-04-30 04:30 52.43137 9.98300 9318 ft 272 kts 116°
2026-04-30 04:31 52.42177 10.01001 10246 ft 276 kts 116°
2026-04-30 04:31 52.41197 10.03774 10910 ft 291 kts 116°
2026-04-30 04:31 52.40148 10.06771 11242 ft 315 kts 116°
2026-04-30 04:31 52.39015 10.09990 11672 ft 332 kts 116°
2026-04-30 04:32 52.37832 10.13316 12394 ft 340 kts 116°
2026-04-30 04:32 52.36642 10.16656 13159 ft 345 kts 116°
2026-04-30 04:32 52.35422 10.20080 13967 ft 350 kts 116°
2026-04-30 04:32 52.34186 10.23551 14688 ft 355 kts 116°
2026-04-30 04:33 52.32936 10.27056 15391 ft 358 kts 116°
2026-04-30 04:33 52.31668 10.30601 16083 ft 362 kts 116°
2026-04-30 04:33 52.30390 10.34179 16779 ft 366 kts 116°
2026-04-30 04:33 52.29112 10.37754 17440 ft 370 kts 116°
2026-04-30 04:34 52.27803 10.41414 18133 ft 374 kts 115°
2026-04-30 04:34 52.26475 10.45117 18805 ft 378 kts 115°
2026-04-30 04:34 52.25136 10.48839 19393 ft 382 kts 115°
2026-04-30 04:34 52.23779 10.52604 19980 ft 385 kts 116°
2026-04-30 04:35 52.22425 10.56355 20537 ft 388 kts 115°
2026-04-30 04:35 52.21047 10.60179 21107 ft 392 kts 115°
2026-04-30 04:35 52.19654 10.64032 21663 ft 395 kts 116°
2026-04-30 04:35 52.18250 10.67906 22216 ft 398 kts 116°
2026-04-30 04:36 52.16831 10.71809 22749 ft 402 kts 116°
2026-04-30 04:36 52.15396 10.75749 23300 ft 405 kts 116°
2026-04-30 04:36 52.13806 10.79582 23798 ft 413 kts 124°
2026-04-30 04:36 52.11819 10.82957 24258 ft 422 kts 135°
2026-04-30 04:37 52.09401 10.85782 24689 ft 432 kts 146°
2026-04-30 04:37 52.06732 10.88095 25119 ft 436 kts 148°
2026-04-30 04:37 52.04034 10.90404 25543 ft 438 kts 148°
2026-04-30 04:37 52.01325 10.92734 25954 ft 441 kts 148°
2026-04-30 04:38 51.98607 10.95078 26373 ft 443 kts 148°
2026-04-30 04:38 51.95907 10.97414 26782 ft 446 kts 148°
2026-04-30 04:38 51.93162 10.99788 27190 ft 448 kts 148°
2026-04-30 04:38 51.90399 11.02166 27584 ft 451 kts 148°
2026-04-30 04:39 51.87619 11.04552 27978 ft 453 kts 148°
2026-04-30 04:39 51.84813 11.06962 28383 ft 456 kts 148°
2026-04-30 04:39 51.81997 11.09379 28776 ft 458 kts 148°
2026-04-30 04:39 51.79164 11.11806 29143 ft 461 kts 148°
2026-04-30 04:40 51.76321 11.14234 29507 ft 463 kts 149°
2026-04-30 04:40 51.73493 11.16642 29861 ft 465 kts 149°
2026-04-30 04:40 51.70614 11.19093 30222 ft 468 kts 149°
2026-04-30 04:40 51.67727 11.21549 30566 ft 470 kts 149°
2026-04-30 04:41 51.64825 11.24011 30854 ft 472 kts 149°
2026-04-30 04:41 51.61906 11.26478 31144 ft 474 kts 149°
2026-04-30 04:41 51.58980 11.28952 31442 ft 475 kts 149°
2026-04-30 04:42 51.53199 11.33831 31513 ft 462 kts 149°
2026-04-30 04:42 51.47561 11.38585 31517 ft 459 kts 149°
2026-04-30 04:43 51.41897 11.43350 31512 ft 459 kts 149°
2026-04-30 04:43 51.36231 11.48099 31517 ft 459 kts 150°
2026-04-30 04:44 51.30548 11.52820 31518 ft 459 kts 150°
2026-04-30 04:44 51.24897 11.57509 31510 ft 459 kts 150°
2026-04-30 04:45 51.19215 11.62206 31504 ft 459 kts 150°
2026-04-30 04:45 51.13448 11.66478 31508 ft 461 kts 160°
2026-04-30 04:46 51.07108 11.68193 31503 ft 464 kts 177°
2026-04-30 04:46 51.00639 11.68520 31503 ft 464 kts 177°
2026-04-30 04:47 50.94168 11.68872 31494 ft 465 kts 177°
2026-04-30 04:47 50.87737 11.69241 31498 ft 465 kts 177°
2026-04-30 04:48 50.81267 11.69596 31497 ft 465 kts 177°
2026-04-30 04:48 50.74783 11.69948 31495 ft 465 kts 177°
2026-04-30 04:49 50.68399 11.71383 31494 ft 463 kts 162°
2026-04-30 04:49 50.62294 11.74568 31491 ft 462 kts 160°
2026-04-30 04:50 50.56207 11.77709 31468 ft 463 kts 161°
2026-04-30 04:50 50.50074 11.80851 31455 ft 463 kts 161°
2026-04-30 04:51 50.44034 11.84346 31436 ft 462 kts 155°
2026-04-30 04:51 50.38129 11.88380 31428 ft 463 kts 155°
2026-04-30 04:52 50.32212 11.92394 31425 ft 464 kts 155°
2026-04-30 04:52 50.26282 11.96382 31425 ft 463 kts 156°
2026-04-30 04:53 50.20343 12.00363 31432 ft 464 kts 156°
2026-04-30 04:53 50.14404 12.04345 31442 ft 464 kts 156°
2026-04-30 04:54 50.08490 12.08315 31448 ft 465 kts 156°
2026-04-30 04:54 50.02548 12.12295 31457 ft 465 kts 156°
2026-04-30 04:55 49.96585 12.16269 31446 ft 465 kts 157°
2026-04-30 04:55 49.90614 12.20218 31442 ft 466 kts 157°
2026-04-30 04:55 49.87619 12.22198 31285 ft 467 kts 157°
2026-04-30 04:56 49.84619 12.24179 31037 ft 468 kts 157°
2026-04-30 04:56 49.81656 12.26136 30793 ft 468 kts 157°
2026-04-30 04:56 49.78656 12.28120 30554 ft 469 kts 157°
2026-04-30 04:56 49.75653 12.30103 30267 ft 469 kts 158°
2026-04-30 04:57 49.72687 12.32228 29978 ft 470 kts 151°
2026-04-30 04:57 49.69943 12.35027 29691 ft 471 kts 142°
2026-04-30 04:57 49.67361 12.38064 29430 ft 472 kts 143°
2026-04-30 04:57 49.64739 12.41135 29156 ft 471 kts 143°
2026-04-30 04:58 49.62125 12.44182 28873 ft 470 kts 143°
2026-04-30 04:58 49.59512 12.47223 28602 ft 468 kts 143°
2026-04-30 04:58 49.56894 12.50265 28340 ft 467 kts 143°
2026-04-30 04:58 49.54335 12.53231 28069 ft 465 kts 143°
2026-04-30 04:59 49.51737 12.56235 27799 ft 464 kts 143°
2026-04-30 04:59 49.49158 12.59212 27535 ft 462 kts 143°
2026-04-30 04:59 49.46584 12.62185 27276 ft 460 kts 144°
2026-04-30 04:59 49.44025 12.65140 27022 ft 459 kts 144°
2026-04-30 05:00 49.41388 12.67902 26762 ft 456 kts 152°
2026-04-30 05:00 49.38517 12.69948 26509 ft 452 kts 163°
2026-04-30 05:00 49.35524 12.71063 26259 ft 446 kts 176°
2026-04-30 05:00 49.32452 12.71208 26009 ft 439 kts 188°
2026-04-30 05:01 49.29463 12.70434 25761 ft 431 kts 199°
2026-04-30 05:01 49.27588 12.69478 25536 ft 425 kts 206°
2026-04-30 05:01 49.24904 12.67625 24874 ft 420 kts 209°
2026-04-30 05:01 49.22257 12.65739 24223 ft 418 kts 209°
2026-04-30 05:02 49.19626 12.63857 23604 ft 414 kts 209°
2026-04-30 05:02 49.17033 12.61993 23072 ft 407 kts 209°
2026-04-30 05:02 49.14490 12.60163 22574 ft 401 kts 209°
2026-04-30 05:02 49.12009 12.58379 22097 ft 395 kts 209°
2026-04-30 05:03 49.09537 12.56609 21647 ft 389 kts 208°
2026-04-30 05:03 49.07092 12.54865 21191 ft 385 kts 208°
2026-04-30 05:03 49.04679 12.53150 20740 ft 380 kts 208°
2026-04-30 05:03 49.02291 12.51449 20299 ft 376 kts 208°
2026-04-30 05:04 48.99929 12.49757 19843 ft 372 kts 208°
2026-04-30 05:04 48.97595 12.48082 19406 ft 369 kts 208°
2026-04-30 05:04 48.95270 12.46418 18943 ft 367 kts 208°
2026-04-30 05:04 48.92964 12.44773 18462 ft 366 kts 208°
2026-04-30 05:05 48.90689 12.43154 17994 ft 363 kts 207°
2026-04-30 05:05 48.88399 12.41528 17519 ft 361 kts 207°
2026-04-30 05:05 48.86132 12.39916 17050 ft 358 kts 207°
2026-04-30 05:06 48.81638 12.36719 16102 ft 355 kts 207°
2026-04-30 05:06 48.79393 12.35178 15624 ft 354 kts 203°
2026-04-30 05:06 48.77038 12.34076 15155 ft 354 kts 195°
2026-04-30 05:06 48.74649 12.33155 14685 ft 352 kts 195°
2026-04-30 05:07 48.72274 12.32244 14221 ft 351 kts 195°
2026-04-30 05:07 48.69910 12.31338 13722 ft 349 kts 195°
2026-04-30 05:07 48.67553 12.30430 13207 ft 348 kts 195°
2026-04-30 05:07 48.65228 12.29533 12897 ft 342 kts 195°
2026-04-30 05:08 48.62945 12.28654 12641 ft 340 kts 195°
2026-04-30 05:08 48.60656 12.27780 12374 ft 338 kts 195°
2026-04-30 05:08 48.58377 12.26910 12115 ft 337 kts 195°
2026-04-30 05:08 48.56101 12.26024 11860 ft 336 kts 195°
2026-04-30 05:09 48.53839 12.25131 11604 ft 335 kts 195°
2026-04-30 05:09 48.51653 12.23959 11353 ft 333 kts 209°
2026-04-30 05:09 48.49803 12.21887 11100 ft 330 kts 227°
2026-04-30 05:09 48.48469 12.19093 10853 ft 328 kts 245°
2026-04-30 05:10 48.47761 12.15855 10599 ft 325 kts 262°
2026-04-30 05:10 48.47500 12.12458 10335 ft 326 kts 265°
2026-04-30 05:10 48.47258 12.09096 10043 ft 326 kts 265°
2026-04-30 05:10 48.47006 12.05699 9759 ft 326 kts 264°
2026-04-30 05:11 48.46753 12.02308 9458 ft 325 kts 264°
2026-04-30 05:11 48.46500 11.98910 9162 ft 324 kts 264°
2026-04-30 05:11 48.46244 11.95536 8865 ft 323 kts 264°
2026-04-30 05:11 48.45989 11.92195 8601 ft 315 kts 264°
2026-04-30 05:12 48.45745 11.88964 8342 ft 306 kts 264°
2026-04-30 05:12 48.45508 11.85862 8092 ft 298 kts 264°
2026-04-30 05:12 48.45275 11.82791 7824 ft 291 kts 264°
2026-04-30 05:12 48.45046 11.79781 7593 ft 288 kts 264°
2026-04-30 05:13 48.44818 11.76793 7340 ft 286 kts 264°
2026-04-30 05:13 48.44589 11.73811 7091 ft 286 kts 264°
2026-04-30 05:13 48.44356 11.70832 6853 ft 286 kts 264°
2026-04-30 05:13 48.44125 11.67858 6592 ft 285 kts 264°
2026-04-30 05:14 48.43896 11.64887 6336 ft 283 kts 264°
2026-04-30 05:14 48.43670 11.61986 6118 ft 274 kts 264°
2026-04-30 05:14 48.43450 11.59207 5911 ft 267 kts 264°
2026-04-30 05:14 48.43232 11.56466 5696 ft 259 kts 264°
2026-04-30 05:15 48.43019 11.53812 5506 ft 252 kts 263°
2026-04-30 05:15 48.42812 11.51222 5307 ft 246 kts 263°
2026-04-30 05:15 48.42610 11.48692 5120 ft 240 kts 263°
2026-04-30 05:15 48.42356 11.46237 5009 ft 235 kts 251°
2026-04-30 05:16 48.41592 11.44165 5000 ft 222 kts 224°
2026-04-30 05:16 48.40377 11.42848 5010 ft 213 kts 198°
2026-04-30 05:16 48.38962 11.42436 5009 ft 204 kts 173°
2026-04-30 05:16 48.37601 11.42902 5007 ft 199 kts 149°
2026-04-30 05:17 48.36506 11.44094 5007 ft 193 kts 128°
2026-04-30 05:17 48.35756 11.45741 5011 ft 190 kts 118°
2026-04-30 05:17 48.35072 11.47407 5026 ft 182 kts 118°
2026-04-30 05:17 48.34467 11.49065 5024 ft 179 kts 108°
2026-04-30 05:18 48.34257 11.50867 4997 ft 177 kts 89°
2026-04-30 05:18 48.34380 11.52698 4832 ft 175 kts 83°
2026-04-30 05:18 48.34529 11.54505 4624 ft 173 kts 83°
2026-04-30 05:18 48.34672 11.56300 4400 ft 171 kts 84°
2026-04-30 05:19 48.34810 11.58054 4168 ft 166 kts 84°
2026-04-30 05:19 48.34945 11.59761 3947 ft 163 kts 84°
2026-04-30 05:19 48.35078 11.61441 3731 ft 159 kts 85°
2026-04-30 05:19 48.35205 11.63044 3524 ft 149 kts 84°
2026-04-30 05:20 48.35325 11.64570 3329 ft 142 kts 84°
2026-04-30 05:20 48.35437 11.65996 3144 ft 134 kts 85°
2026-04-30 05:20 48.35544 11.67358 2951 ft 132 kts 84°
2026-04-30 05:20 48.35658 11.68718 2757 ft 131 kts 84°
2026-04-30 05:21 48.35765 11.70086 2554 ft 132 kts 84°
2026-04-30 05:21 48.35865 11.71456 2296 ft 132 kts 83°
2026-04-30 05:21 48.35974 11.72813 2045 ft 129 kts 83°
2026-04-30 05:21 48.36074 11.74144 1857 ft 127 kts 83°
2026-04-30 05:22 48.36173 11.75468 1687 ft 128 kts 83°
2026-04-30 05:22 48.36279 11.76802 1527 ft 128 kts 83°
2026-04-30 05:22 48.36374 11.78014 1485 ft 99 kts 83°
2026-04-30 05:22 48.36434 11.78789 1483 ft 60 kts 83°
2026-04-30 05:23 48.36460 11.79168 1485 ft 23 kts 90°
2026-04-30 05:23 48.36415 11.79395 1477 ft 23 kts 114°
2026-04-30 05:23 48.36366 11.79557 1480 ft 16 kts 114°
2026-04-30 05:23 48.36317 11.79725 1477 ft 19 kts 114°
2026-04-30 05:24 48.36236 11.79832 1478 ft 16 kts 167°
2026-04-30 05:24 48.36139 11.79829 1479 ft 12 kts 220°
2026-04-30 05:24 48.36124 11.79715 1479 ft 11 kts 264°
2026-04-30 05:24 48.36116 11.79606 1485 ft 10 kts 263°
2026-04-30 05:25 48.36108 11.79506 1485 ft 9 kts 263°
2026-04-30 05:25 48.36098 11.79388 1485 ft 12 kts 262°
2026-04-30 05:25 48.36039 11.79325 1481 ft 11 kts 179°
2026-04-30 05:25 48.35967 11.79337 1481 ft 11 kts 173°
2026-04-30 05:26 48.35873 11.79381 1476 ft 16 kts 168°
2026-04-30 05:26 48.35758 11.79401 1476 ft 18 kts 173°
2026-04-30 05:26 48.35673 11.79415 1482 ft 9 kts 179°
2026-04-30 05:26 48.35649 11.79352 1479 ft 7 kts 262°
2026-04-30 05:27 48.35644 11.79287 1480 ft 3 kts 263°
2026-04-30 05:27 48.35643 11.79272 1477 ft 0 kts 263°